This is the latest recevied weather packets stored in our database for station/object IZ8QAD-10. If no packets are shown the sender has not sent any weather packets the latest 10 day(s).
| Time | Temp. | Humidity | Pressure | Rain* | Wind** | Luminosity | Snow |
|---|---|---|---|---|---|---|---|
| 1777384297 | 29.44° C | 37% | 967.9 hPa | - | - | - | - |
| 1777382497 | 28.89° C | 37% | 968.2 hPa | - | - | - | - |
| 1777380697 | 28.33° C | 37% | 968.2 hPa | - | - | - | - |
| 1777378897 | 28.33° C | 38% | 968.4 hPa | - | - | - | - |
| 1777377096 | 27.78° C | 37% | 968.4 hPa | - | - | - | - |
| 1777375296 | 27.78° C | 37% | 968.5 hPa | - | - | - | - |
| 1777373495 | 27.22° C | 38% | 968.8 hPa | - | - | - | - |
| 1777371695 | 27.22° C | 37% | 968.8 hPa | - | - | - | - |
| 1777369894 | 27.22° C | 38% | 969 hPa | - | - | - | - |
| 1777368094 | 27.22° C | 36% | 969.2 hPa | - | - | - | - |
| 1777366293 | 26.67° C | 37% | 969.1 hPa | - | - | - | - |
| 1777364493 | 26.67° C | 37% | 969.2 hPa | - | - | - | - |
| 1777362693 | 26.67° C | 35% | 969.2 hPa | - | - | - | - |
| 1777360892 | 26.11° C | 36% | 969.4 hPa | - | - | - | - |
| 1777359092 | 27.22° C | 36% | 969.6 hPa | - | - | - | - |
| 1777357291 | 27.22° C | 34% | 969.7 hPa | - | - | - | - |
| 1777355491 | 27.22° C | 33% | 969.7 hPa | - | - | - | - |
| 1777353690 | 27.22° C | 33% | 969.6 hPa | - | - | - | - |
| 1777351890 | 27.22° C | 33% | 969.5 hPa | - | - | - | - |
| 1777350089 | 27.78° C | 32% | 969.3 hPa | - | - | - | - |
| 1777348289 | 27.78° C | 32% | 969.3 hPa | - | - | - | - |
| 1777346489 | 27.78° C | 33% | 969.3 hPa | - | - | - | - |
| 1777344688 | 27.78° C | 32% | 969.4 hPa | - | - | - | - |
| 1777342888 | 28.33° C | 32% | 969.5 hPa | - | - | - | - |
| 1777341088 | 28.33° C | 32% | 969.6 hPa | - | - | - | - |
* Rain since midnight (hover to see other rain measurements)
** Current wind speed in m/s (hover to see current wind gust speed)